West Palm Beach, FL

10:23 PM EST on December 12, 2019 (GMT -0500)
Palm Beach International

Weather History for KPBI - May, 2019

Change the Weather History Date:

Saturday, May 4, 2019

  Actual Average Record
Temperature  
Mean Temperature 79 °F 76 °F  
Max Temperature 87 °F 84 °F 94 °F (1915)
Min Temperature 71 °F 69 °F 48 °F (1921)
Degree Days  
Heating Degree Days 0 0  
Month to date heating degree days 0 0  
Since 1 July heating degree days 144 233  
Cooling Degree Days 14 11  
Month to date cooling degree days 53 44  
Year to date cooling degree days 978 739  
Growing Degree Days 29 (Base 50)    
Moisture  
Dew Point 72 °F    
Average Humidity 78    
Maximum Humidity 94    
Minimum Humidity 61    
Precipitation  
Precipitation 0.01 in 0.08 in 2.66 in (1911)
Month to date precipitation 1.37 0.33  
Year to date precipitation 17.09 14.53  
Snow  
Snow 0.00 in - - ()
Month to date snowfall 0.0  
Since 1 July snowfall 0.0  
Snow Depth 0.00 in    
Sea Level Pressure  
Sea Level Pressure 29.97 in    
Wind  
Wind Speed 9 mph (SSE)    
Max Wind Speed 21 mph    
Max Gust Speed 25 mph    
Visibility 10 miles    
Events Rain , Thunderstorm    
T = Trace of Precipitation, MM = Missing Value Source: NWS Daily Summary

Daily Weather History Graph

Daily Weather History Graph

Search for Another Location

Airport or City:

Astronomy

May. 04, 2019 Rise Set
Actual Time 6:40 AM EDT 7:54 PM EDT
Civil Twilight 6:15 AM EDT 8:19 PM EDT
Nautical Twilight 5:46 AM EDT 8:48 PM EDT
Astronomical Twilight 5:16 AM EDT 9:18 PM EDT
Moon 6:40 AM EDT (5/4) 7:48 PM EDT (5/4)
Length of Visible Light 14h 03m
Length of Day
13h 14m
Waning Crescent, 0% of the Moon is Illuminated
May 4
Waning Crescent
May 4
New
May 11
First Quarter
May 18
Full
May 26
Last Quarter

Hourly Weather History & Observations

Time (EDT) Temp. Heat Index Dew Point Humidity Pressure Visibility Wind Dir Wind Speed Gust Speed Precip Events Conditions
12:53 AM 73.9 °F - 69.1 °F 85% 30.03 in 10.0 mi South 4.6 mph - N/A   Mostly Cloudy
1:53 AM 73.9 °F - 70.0 °F 87% 30.01 in 10.0 mi Calm Calm - N/A   Mostly Cloudy
2:53 AM 73.9 °F - 71.1 °F 91% 29.99 in 10.0 mi South 3.5 mph - N/A   Scattered Clouds
3:53 AM 73.9 °F - 71.1 °F 91% 29.98 in 10.0 mi Calm Calm - N/A   Scattered Clouds
4:53 AM 71.1 °F - 69.1 °F 93% 29.97 in 10.0 mi Calm Calm - N/A   Partly Cloudy
5:53 AM 71.1 °F - 70.0 °F 96% 29.97 in 10.0 mi Calm Calm - N/A   Scattered Clouds
6:53 AM 75.0 °F - 73.0 °F 94% 29.98 in 10.0 mi SSE 5.8 mph - N/A   Partly Cloudy
7:53 AM 77.0 °F - 73.9 °F 90% 30.00 in 10.0 mi South 4.6 mph - N/A   Partly Cloudy
8:53 AM 81.0 °F 86.2 °F 73.9 °F 79% 30.01 in 10.0 mi South 8.1 mph - N/A   Scattered Clouds
9:53 AM 81.0 °F 85.2 °F 72.0 °F 74% 30.02 in 10.0 mi SSE 9.2 mph - N/A   Mostly Cloudy
10:53 AM 84.0 °F 89.6 °F 72.0 °F 67% 30.01 in 10.0 mi SSE 17.3 mph 20.7 mph N/A   Scattered Clouds
11:53 AM 84.9 °F 90.7 °F 72.0 °F 65% 30.00 in 10.0 mi SE 16.1 mph - N/A   Scattered Clouds
12:53 PM 86.0 °F 92.2 °F 72.0 °F 63% 29.99 in 10.0 mi SSE 15.0 mph - N/A   Scattered Clouds
1:53 PM 84.9 °F 90.7 °F 72.0 °F 65% 29.98 in 10.0 mi SSE 15.0 mph - N/A   Scattered Clouds
2:53 PM 86.0 °F 92.2 °F 72.0 °F 63% 29.97 in 10.0 mi SE 17.3 mph - N/A   Scattered Clouds
3:08 PM 84.9 °F 90.7 °F 72.0 °F 65% 29.96 in 10.0 mi SE 18.4 mph - N/A Thunderstorm Thunderstorm
3:53 PM 84.9 °F 90.1 °F 71.1 °F 63% 29.93 in 10.0 mi SSE 16.1 mph - N/A Thunderstorm Thunderstorm
4:08 PM 86.0 °F 92.2 °F 72.0 °F 63% 29.91 in 10.0 mi SE 19.6 mph - N/A   Mostly Cloudy
4:53 PM 81.0 °F 85.2 °F 72.0 °F 74% 29.92 in 10.0 mi SSE 18.4 mph - N/A   Mostly Cloudy
5:53 PM 80.1 °F 84.2 °F 73.0 °F 79% 29.93 in 10.0 mi SSE 11.5 mph - N/A   Mostly Cloudy
6:10 PM 80.1 °F 84.2 °F 73.0 °F 79% 29.92 in 10.0 mi SSE 13.8 mph - N/A Thunderstorm Thunderstorm
6:53 PM 79.0 °F - 73.9 °F 84% 29.95 in 10.0 mi SSE 9.2 mph - 0.01 in Rain , Thunderstorm Light Thunderstorms and Rain
7:12 PM 79.0 °F - 75.0 °F 88% 29.96 in 10.0 mi SSE 6.9 mph - 0.00 in   Mostly Cloudy
7:53 PM 79.0 °F - 75.0 °F 88% 29.95 in 10.0 mi SE 8.1 mph - 0.00 in   Mostly Cloudy
8:53 PM 79.0 °F - 75.0 °F 88% 29.96 in 10.0 mi SSE 8.1 mph - N/A   Mostly Cloudy
9:53 PM 79.0 °F - 73.9 °F 84% 29.98 in 10.0 mi SE 6.9 mph - N/A   Mostly Cloudy
10:53 PM 78.1 °F - 73.9 °F 87% 29.99 in 10.0 mi SSE 4.6 mph - N/A   Mostly Cloudy
11:53 PM 78.1 °F - 73.9 °F 87% 29.98 in 10.0 mi SSE 4.6 mph - N/A   Scattered Clouds